Year,Month,Day,Hour,Minute,Value (Times are PST for windgust in km/hr)
2014,02,14,00,00,11.30
2014,02,14,00,01,14.50
2014,02,14,00,02,16.10
2014,02,14,00,03,17.70
2014,02,14,00,04,17.70
2014,02,14,00,05,8.10
2014,02,14,00,06,11.30
2014,02,14,00,07,20.90
2014,02,14,00,08,12.90
2014,02,14,00,09,17.70
2014,02,14,00,10,12.90
2014,02,14,00,11,6.40
2014,02,14,00,12,20.90
2014,02,14,00,13,32.20
2014,02,14,00,14,29.00
2014,02,14,00,15,19.30
2014,02,14,00,16,22.50
2014,02,14,00,17,17.70
2014,02,14,00,18,19.30
2014,02,14,00,19,11.30
2014,02,14,00,20,11.30
2014,02,14,00,21,17.70
2014,02,14,00,22,22.50
2014,02,14,00,23,24.20
2014,02,14,00,24,20.90
2014,02,14,00,25,22.50
2014,02,14,00,26,14.50
2014,02,14,00,27,19.30
2014,02,14,00,28,14.50
2014,02,14,00,29,22.50
2014,02,14,00,30,25.70
2014,02,14,00,31,30.60
2014,02,14,00,32,16.10
2014,02,14,00,33,14.50
2014,02,14,00,34,12.90
2014,02,14,00,35,9.60
2014,02,14,00,36,14.50
2014,02,14,00,37,17.70
2014,02,14,00,38,17.70
2014,02,14,00,39,22.50
2014,02,14,00,40,22.50
2014,02,14,00,41,30.60
2014,02,14,00,42,24.20
2014,02,14,00,43,24.20
2014,02,14,00,44,19.30
2014,02,14,00,45,37.00
2014,02,14,00,46,17.70
2014,02,14,00,47,20.90
2014,02,14,00,48,17.70
2014,02,14,00,49,16.10
2014,02,14,00,50,24.20
2014,02,14,00,51,24.20
2014,02,14,00,52,11.30
2014,02,14,00,53,14.50
2014,02,14,00,54,19.30
2014,02,14,00,55,12.90
2014,02,14,00,56,29.00
2014,02,14,00,57,29.00
2014,02,14,00,58,8.10
2014,02,14,00,59,25.70
2014,02,14,01,00,17.70
2014,02,14,01,01,29.00
2014,02,14,01,02,16.10
2014,02,14,01,03,25.70
2014,02,14,01,04,37.00
2014,02,14,01,05,25.70
2014,02,14,01,06,25.70
2014,02,14,01,07,29.00
2014,02,14,01,08,43.50
2014,02,14,01,09,17.70
2014,02,14,01,10,20.90
2014,02,14,01,11,24.20
2014,02,14,01,12,40.20
2014,02,14,01,13,22.50
2014,02,14,01,14,35.40
2014,02,14,01,15,35.40
2014,02,14,01,16,32.20
2014,02,14,01,17,27.40
2014,02,14,01,18,27.40
2014,02,14,01,19,38.60
2014,02,14,01,20,17.70
2014,02,14,01,21,30.60
2014,02,14,01,22,27.40
2014,02,14,01,23,29.00
2014,02,14,01,24,16.10
2014,02,14,01,25,25.70
2014,02,14,01,26,20.90
2014,02,14,01,27,27.40
2014,02,14,01,28,16.10
2014,02,14,01,29,22.50
2014,02,14,01,30,30.60
2014,02,14,01,31,20.90
2014,02,14,01,32,17.70
2014,02,14,01,33,33.80
2014,02,14,01,34,11.30
2014,02,14,01,35,25.70
2014,02,14,01,36,24.20
2014,02,14,01,37,6.40
2014,02,14,01,38,24.20
2014,02,14,01,39,20.90
2014,02,14,01,40,32.20
2014,02,14,01,41,43.50
2014,02,14,01,42,29.00
2014,02,14,01,43,40.20
2014,02,14,01,44,24.20
2014,02,14,01,45,22.50
2014,02,14,01,46,20.90
2014,02,14,01,47,38.60
2014,02,14,01,48,30.60
2014,02,14,01,49,16.10
2014,02,14,01,50,43.50
2014,02,14,01,51,27.40
2014,02,14,01,52,30.60
2014,02,14,01,53,30.60
2014,02,14,01,54,22.50
2014,02,14,01,55,38.60
2014,02,14,01,56,20.90
2014,02,14,01,57,43.50
2014,02,14,01,58,32.20
2014,02,14,01,59,43.50
2014,02,14,02,00,14.50
2014,02,14,02,01,30.60
2014,02,14,02,02,25.70
2014,02,14,02,03,25.70
2014,02,14,02,04,19.30
2014,02,14,02,05,19.30
2014,02,14,02,06,24.20
2014,02,14,02,07,20.90
2014,02,14,02,08,27.40
2014,02,14,02,09,17.70
2014,02,14,02,10,17.70
2014,02,14,02,11,43.50
2014,02,14,02,12,27.40
2014,02,14,02,13,24.20
2014,02,14,02,14,19.30
2014,02,14,02,15,25.70
2014,02,14,02,16,17.70
2014,02,14,02,17,30.60
2014,02,14,02,18,17.70
2014,02,14,02,19,25.70
2014,02,14,02,20,16.10
2014,02,14,02,21,25.70
2014,02,14,02,22,24.20
2014,02,14,02,23,24.20
2014,02,14,02,24,16.10
2014,02,14,02,25,20.90
2014,02,14,02,26,19.30
2014,02,14,02,27,29.00
2014,02,14,02,28,22.50
2014,02,14,02,29,11.30
2014,02,14,02,30,25.70
2014,02,14,02,31,19.30
2014,02,14,02,32,32.20
2014,02,14,02,33,29.00
2014,02,14,02,34,25.70
2014,02,14,02,35,27.40
2014,02,14,02,36,30.60
2014,02,14,02,37,24.20
2014,02,14,02,38,20.90
2014,02,14,02,39,41.80
2014,02,14,02,40,30.60
2014,02,14,02,41,19.30
2014,02,14,02,42,25.70
2014,02,14,02,43,27.40
2014,02,14,02,44,27.40
2014,02,14,02,45,19.30
2014,02,14,02,46,38.60
2014,02,14,02,47,35.40
2014,02,14,02,48,37.00
2014,02,14,02,49,25.70
2014,02,14,02,50,25.70
2014,02,14,02,51,19.30
2014,02,14,02,52,38.60
2014,02,14,02,53,22.50
2014,02,14,02,54,35.40
2014,02,14,02,55,29.00
2014,02,14,02,56,25.70
2014,02,14,02,57,14.50
2014,02,14,02,58,24.20
2014,02,14,02,59,24.20
2014,02,14,03,00,24.20
2014,02,14,03,01,22.50
2014,02,14,03,02,32.20
2014,02,14,03,03,22.50
2014,02,14,03,04,25.70
2014,02,14,03,05,30.60
2014,02,14,03,06,25.70
2014,02,14,03,07,25.70
2014,02,14,03,08,14.50
2014,02,14,03,09,20.90
2014,02,14,03,10,54.70
2014,02,14,03,11,33.80
2014,02,14,03,12,40.20
2014,02,14,03,13,17.70
2014,02,14,03,14,38.60
2014,02,14,03,15,25.70
2014,02,14,03,16,24.20
2014,02,14,03,17,30.60
2014,02,14,03,18,43.50
2014,02,14,03,19,19.30
2014,02,14,03,20,41.80
2014,02,14,03,21,24.20
2014,02,14,03,22,38.60
2014,02,14,03,23,19.30
2014,02,14,03,24,17.70
2014,02,14,03,25,20.90
2014,02,14,03,26,19.30
2014,02,14,03,27,19.30
2014,02,14,03,28,33.80
2014,02,14,03,29,27.40
2014,02,14,03,30,22.50
2014,02,14,03,31,20.90
2014,02,14,03,32,20.90
2014,02,14,03,33,35.40
2014,02,14,03,34,25.70
2014,02,14,03,35,25.70
2014,02,14,03,36,24.20
2014,02,14,03,37,19.30
2014,02,14,03,38,20.90
2014,02,14,03,39,17.70
2014,02,14,03,40,30.60
2014,02,14,03,41,32.20
2014,02,14,03,42,27.40
2014,02,14,03,43,32.20
2014,02,14,03,44,20.90
2014,02,14,03,45,27.40
2014,02,14,03,46,27.40
2014,02,14,03,47,48.30
2014,02,14,03,48,19.30
2014,02,14,03,49,22.50
2014,02,14,03,50,35.40
2014,02,14,03,51,22.50
2014,02,14,03,52,29.00
2014,02,14,03,53,17.70
2014,02,14,03,54,20.90
2014,02,14,03,55,43.50
2014,02,14,03,56,43.50
2014,02,14,03,57,27.40
2014,02,14,03,58,33.80
2014,02,14,03,59,32.20
2014,02,14,04,00,19.30
2014,02,14,04,01,24.20
2014,02,14,04,02,27.40
2014,02,14,04,03,30.60
2014,02,14,04,04,37.00
2014,02,14,04,05,20.90
2014,02,14,04,06,16.10
2014,02,14,04,07,16.10
2014,02,14,04,08,37.00
2014,02,14,04,09,33.80
2014,02,14,04,10,43.50
2014,02,14,04,11,38.60
2014,02,14,04,12,27.40
2014,02,14,04,13,32.20
2014,02,14,04,14,32.20
2014,02,14,04,15,37.00
2014,02,14,04,16,25.70
2014,02,14,04,17,43.50
2014,02,14,04,18,33.80
2014,02,14,04,19,45.10
2014,02,14,04,20,66.00
2014,02,14,04,21,30.60
2014,02,14,04,22,35.40
2014,02,14,04,23,49.90
2014,02,14,04,24,41.80
2014,02,14,04,25,41.80
2014,02,14,04,26,40.20
2014,02,14,04,27,30.60
2014,02,14,04,28,41.80
2014,02,14,04,29,17.70
2014,02,14,04,30,27.40
2014,02,14,04,31,19.30
2014,02,14,04,32,19.30
2014,02,14,04,33,32.20
2014,02,14,04,34,27.40
2014,02,14,04,35,37.00
2014,02,14,04,36,32.20
2014,02,14,04,37,22.50
2014,02,14,04,38,27.40
2014,02,14,04,39,17.70
2014,02,14,04,40,27.40
2014,02,14,04,41,27.40
2014,02,14,04,42,29.00
2014,02,14,04,43,19.30
2014,02,14,04,44,16.10
2014,02,14,04,45,17.70
2014,02,14,04,46,33.80
2014,02,14,04,47,14.50
2014,02,14,04,48,14.50
2014,02,14,04,49,14.50
2014,02,14,04,50,27.40
2014,02,14,04,51,46.70
2014,02,14,04,52,56.30
2014,02,14,04,53,40.20
2014,02,14,04,54,37.00
2014,02,14,04,55,35.40
2014,02,14,04,56,25.70
2014,02,14,04,57,49.90
2014,02,14,04,58,41.80
2014,02,14,04,59,37.00
2014,02,14,05,00,25.70
2014,02,14,05,01,33.80
2014,02,14,05,02,43.50
2014,02,14,05,03,25.70
2014,02,14,05,04,33.80
2014,02,14,05,05,24.20
2014,02,14,05,06,22.50
2014,02,14,05,07,19.30
2014,02,14,05,08,9.60
2014,02,14,05,09,32.20
2014,02,14,05,10,24.20
2014,02,14,05,11,25.70
2014,02,14,05,12,33.80
2014,02,14,05,13,24.20
2014,02,14,05,14,30.60
2014,02,14,05,15,19.30
2014,02,14,05,16,9.60
2014,02,14,05,17,16.10
2014,02,14,05,18,16.10
2014,02,14,05,19,17.70
2014,02,14,05,20,20.90
2014,02,14,05,21,33.80
2014,02,14,05,22,32.20
2014,02,14,05,23,9.60
2014,02,14,05,24,9.60
2014,02,14,05,25,19.30
2014,02,14,05,26,12.90
2014,02,14,05,27,24.20
2014,02,14,05,28,20.90
2014,02,14,05,29,22.50
2014,02,14,05,30,27.40
2014,02,14,05,31,11.30
2014,02,14,05,32,12.90
2014,02,14,05,33,9.60
2014,02,14,05,34,22.50
2014,02,14,05,35,30.60
2014,02,14,05,36,20.90
2014,02,14,05,37,19.30
2014,02,14,05,38,17.70
2014,02,14,05,39,12.90
2014,02,14,05,40,14.50
2014,02,14,05,41,11.30
2014,02,14,05,42,11.30
2014,02,14,05,43,20.90
2014,02,14,05,44,11.30
2014,02,14,05,45,17.70
2014,02,14,05,46,17.70
2014,02,14,05,47,27.40
2014,02,14,05,48,17.70
2014,02,14,05,49,19.30
2014,02,14,05,50,17.70
2014,02,14,05,51,11.30
2014,02,14,05,52,14.50
2014,02,14,05,53,17.70
2014,02,14,05,54,8.10
2014,02,14,05,55,14.50
2014,02,14,05,56,17.70
2014,02,14,05,57,8.10
2014,02,14,05,58,14.50
2014,02,14,05,59,12.90
2014,02,14,06,00,9.60
2014,02,14,06,01,11.30
2014,02,14,06,02,11.30
2014,02,14,06,03,14.50
2014,02,14,06,04,14.50
2014,02,14,06,05,14.50
2014,02,14,06,06,14.50
2014,02,14,06,07,11.30
2014,02,14,06,08,14.50
2014,02,14,06,09,12.90
2014,02,14,06,10,9.60
2014,02,14,06,11,6.40
2014,02,14,06,12,16.10
2014,02,14,06,13,17.70
2014,02,14,06,14,14.50
2014,02,14,06,15,9.60
2014,02,14,06,16,8.10
2014,02,14,06,17,12.90
2014,02,14,06,18,11.30
2014,02,14,06,19,11.30
2014,02,14,06,20,12.90
2014,02,14,06,21,14.50
2014,02,14,06,22,17.70
2014,02,14,06,23,6.40
2014,02,14,06,24,12.90
2014,02,14,06,25,9.60
2014,02,14,06,26,9.60
2014,02,14,06,27,9.60
2014,02,14,06,28,16.10
2014,02,14,06,29,11.30
2014,02,14,06,30,12.90
2014,02,14,06,31,9.60
2014,02,14,06,32,12.90
2014,02,14,06,33,12.90
2014,02,14,06,34,11.30
2014,02,14,06,35,8.10
2014,02,14,06,36,11.30
2014,02,14,06,37,14.50
2014,02,14,06,38,17.70
2014,02,14,06,39,12.90
2014,02,14,06,40,22.50
2014,02,14,06,41,17.70
2014,02,14,06,42,12.90
2014,02,14,06,43,16.10
2014,02,14,06,44,16.10
2014,02,14,06,45,8.10
2014,02,14,06,46,9.60
2014,02,14,06,47,8.10
2014,02,14,06,48,11.30
2014,02,14,06,49,11.30
2014,02,14,06,50,11.30
2014,02,14,06,51,9.60
2014,02,14,06,52,6.40
2014,02,14,06,53,6.40
2014,02,14,06,54,8.10
2014,02,14,06,55,8.10
2014,02,14,06,56,9.60
2014,02,14,06,57,9.60
2014,02,14,06,58,6.40
2014,02,14,06,59,6.40
2014,02,14,07,00,3.20
2014,02,14,07,01,4.80
2014,02,14,07,02,11.30
2014,02,14,07,03,8.10
2014,02,14,07,04,8.10
2014,02,14,07,05,6.40
2014,02,14,07,06,4.80
2014,02,14,07,07,3.20
2014,02,14,07,08,6.40
2014,02,14,07,09,4.80
2014,02,14,07,10,8.10
2014,02,14,07,11,4.80
2014,02,14,07,12,6.40
2014,02,14,07,13,8.10
2014,02,14,07,14,6.40
2014,02,14,07,15,8.10
2014,02,14,07,16,9.60
2014,02,14,07,17,9.60
2014,02,14,07,18,3.20
2014,02,14,07,19,8.10
2014,02,14,07,20,8.10
2014,02,14,07,21,8.10
2014,02,14,07,22,8.10
2014,02,14,07,23,4.80
2014,02,14,07,24,8.10
2014,02,14,07,25,8.10
2014,02,14,07,26,12.90
2014,02,14,07,27,8.10
2014,02,14,07,28,4.80
2014,02,14,07,29,6.40
2014,02,14,07,30,11.30
2014,02,14,07,31,6.40
2014,02,14,07,32,11.30
2014,02,14,07,33,12.90
2014,02,14,07,34,4.80
2014,02,14,07,35,8.10
2014,02,14,07,36,8.10
2014,02,14,07,37,4.80
2014,02,14,07,38,6.40
2014,02,14,07,39,6.40
2014,02,14,07,40,3.20
2014,02,14,07,41,3.20
2014,02,14,07,42,4.80
2014,02,14,07,43,8.10
2014,02,14,07,44,6.40
2014,02,14,07,45,6.40
2014,02,14,07,46,6.40
2014,02,14,07,47,9.60
2014,02,14,07,48,6.40
2014,02,14,07,49,8.10
2014,02,14,07,50,11.30
2014,02,14,07,51,8.10
2014,02,14,07,52,6.40
2014,02,14,07,53,17.70
2014,02,14,07,54,6.40
2014,02,14,07,55,6.40
2014,02,14,07,56,6.40
2014,02,14,07,57,9.60
2014,02,14,07,58,8.10
2014,02,14,07,59,12.90
2014,02,14,08,00,6.40
2014,02,14,08,01,8.10
2014,02,14,08,02,8.10
2014,02,14,08,03,20.90
2014,02,14,08,04,6.40
2014,02,14,08,05,11.30
2014,02,14,08,06,11.30
2014,02,14,08,07,11.30
2014,02,14,08,08,12.90
2014,02,14,08,09,11.30
2014,02,14,08,10,14.50
2014,02,14,08,11,6.40
2014,02,14,08,12,3.20
2014,02,14,08,13,6.40
2014,02,14,08,14,4.80
2014,02,14,08,15,9.60
2014,02,14,08,16,4.80
2014,02,14,08,17,4.80
2014,02,14,08,18,1.60
2014,02,14,08,19,4.80
2014,02,14,08,20,4.80
2014,02,14,08,21,4.80
2014,02,14,08,22,4.80
2014,02,14,08,23,3.20
2014,02,14,08,24,4.80
2014,02,14,08,25,4.80
2014,02,14,08,26,3.20
2014,02,14,08,27,1.60
2014,02,14,08,28,3.20
2014,02,14,08,29,3.20
2014,02,14,08,30,6.40
2014,02,14,08,31,3.20
2014,02,14,08,32,1.60
2014,02,14,08,33,1.60
2014,02,14,08,34,1.60
2014,02,14,08,35,1.60
2014,02,14,08,36,1.60
2014,02,14,08,37,1.60
2014,02,14,08,38,1.60
2014,02,14,08,42,1.60
2014,02,14,08,43,1.60
2014,02,14,08,45,1.60
2014,02,14,08,49,1.60
2014,02,14,08,50,1.60
2014,02,14,08,51,1.60
2014,02,14,08,52,1.60
2014,02,14,08,53,1.60
2014,02,14,08,54,1.60
2014,02,14,08,55,1.60
2014,02,14,08,56,1.60
2014,02,14,08,57,1.60
2014,02,14,08,58,1.60
2014,02,14,08,59,1.60
2014,02,14,09,00,3.20
2014,02,14,09,01,3.20
2014,02,14,09,02,4.80
2014,02,14,09,03,1.60
2014,02,14,09,04,1.60
2014,02,14,09,05,1.60
2014,02,14,09,06,3.20
2014,02,14,09,07,3.20
2014,02,14,09,08,3.20
2014,02,14,09,09,3.20
2014,02,14,09,10,6.40
2014,02,14,09,11,4.80
2014,02,14,09,12,1.60
2014,02,14,09,13,1.60
2014,02,14,09,14,3.20
2014,02,14,09,15,1.60
2014,02,14,09,16,4.80
2014,02,14,09,17,4.80
2014,02,14,09,18,3.20
2014,02,14,09,19,3.20
2014,02,14,09,20,3.20
2014,02,14,09,21,1.60
2014,02,14,09,22,4.80
2014,02,14,09,23,4.80
2014,02,14,09,24,3.20
2014,02,14,09,25,1.60
2014,02,14,09,26,1.60
2014,02,14,09,27,1.60
2014,02,14,09,28,3.20
2014,02,14,09,29,4.80
2014,02,14,09,30,4.80
2014,02,14,09,31,4.80
2014,02,14,09,32,3.20
2014,02,14,09,33,1.60
2014,02,14,09,34,1.60
2014,02,14,09,35,3.20
2014,02,14,09,36,1.60
2014,02,14,09,37,3.20
2014,02,14,09,38,3.20
2014,02,14,09,39,3.20
2014,02,14,09,40,3.20
2014,02,14,09,41,3.20
2014,02,14,09,42,3.20
2014,02,14,09,43,3.20
2014,02,14,09,44,1.60
2014,02,14,09,45,1.60
2014,02,14,09,46,3.20
2014,02,14,09,47,3.20
2014,02,14,09,48,4.80
2014,02,14,09,49,4.80
2014,02,14,09,50,3.20
2014,02,14,09,51,3.20
2014,02,14,09,52,3.20
2014,02,14,09,53,3.20
2014,02,14,09,54,3.20
2014,02,14,09,55,3.20
2014,02,14,09,56,3.20
2014,02,14,09,57,4.80
2014,02,14,09,58,4.80
2014,02,14,09,59,3.20
2014,02,14,10,00,3.20
2014,02,14,10,01,3.20
2014,02,14,10,02,1.60
2014,02,14,10,03,4.80
2014,02,14,10,04,1.60
2014,02,14,10,05,3.20
2014,02,14,10,06,3.20
2014,02,14,10,07,1.60
2014,02,14,10,08,3.20
2014,02,14,10,09,3.20
2014,02,14,10,10,3.20
2014,02,14,10,11,3.20
2014,02,14,10,12,4.80
2014,02,14,10,13,1.60
2014,02,14,10,14,3.20
2014,02,14,10,15,1.60
2014,02,14,10,16,1.60
2014,02,14,10,17,1.60
2014,02,14,10,18,3.20
2014,02,14,10,19,1.60
2014,02,14,10,20,1.60
2014,02,14,10,21,1.60
2014,02,14,10,22,1.60
2014,02,14,10,23,1.60
2014,02,14,10,24,3.20
2014,02,14,10,25,3.20
2014,02,14,10,26,1.60
2014,02,14,10,27,1.60
2014,02,14,10,28,3.20
2014,02,14,10,29,1.60
2014,02,14,10,30,4.80
2014,02,14,10,31,4.80
2014,02,14,10,32,3.20
2014,02,14,10,33,3.20
2014,02,14,10,34,3.20
2014,02,14,10,35,1.60
2014,02,14,10,36,1.60
2014,02,14,10,37,1.60
2014,02,14,10,38,3.20
2014,02,14,10,39,3.20
2014,02,14,10,40,3.20
2014,02,14,10,41,3.20
2014,02,14,10,42,3.20
2014,02,14,10,43,1.60
2014,02,14,10,44,1.60
2014,02,14,10,45,1.60
2014,02,14,10,46,1.60
2014,02,14,10,47,3.20
2014,02,14,10,48,3.20
2014,02,14,10,49,3.20
2014,02,14,10,50,6.40
2014,02,14,10,51,3.20
2014,02,14,10,52,4.80
2014,02,14,10,53,3.20
2014,02,14,10,54,3.20
2014,02,14,10,55,1.60
2014,02,14,10,56,1.60
2014,02,14,10,57,3.20
2014,02,14,10,58,1.60
2014,02,14,10,59,3.20
2014,02,14,11,00,1.60
2014,02,14,11,01,1.60
2014,02,14,11,02,1.60
2014,02,14,11,03,3.20
2014,02,14,11,04,1.60
2014,02,14,11,05,3.20
2014,02,14,11,06,6.40
2014,02,14,11,07,4.80
2014,02,14,11,08,4.80
2014,02,14,11,09,3.20
2014,02,14,11,10,4.80
2014,02,14,11,11,3.20
2014,02,14,11,12,4.80
2014,02,14,11,13,4.80
2014,02,14,11,14,6.40
2014,02,14,11,15,3.20
2014,02,14,11,16,1.60
2014,02,14,11,17,3.20
2014,02,14,11,18,1.60
2014,02,14,11,19,1.60
2014,02,14,11,20,1.60
2014,02,14,11,21,1.60
2014,02,14,11,22,3.20
2014,02,14,11,23,6.40
2014,02,14,11,24,4.80
2014,02,14,11,25,4.80
2014,02,14,11,26,3.20
2014,02,14,11,27,3.20
2014,02,14,11,28,4.80
2014,02,14,11,29,1.60
2014,02,14,11,30,1.60
2014,02,14,11,31,3.20
2014,02,14,11,32,3.20
2014,02,14,11,33,3.20
2014,02,14,11,34,3.20
2014,02,14,11,35,3.20
2014,02,14,11,36,1.60
2014,02,14,11,37,3.20
2014,02,14,11,38,1.60
2014,02,14,11,39,3.20
2014,02,14,11,40,1.60
2014,02,14,11,41,1.60
2014,02,14,11,42,1.60
2014,02,14,11,43,3.20
2014,02,14,11,44,1.60
2014,02,14,11,45,1.60
2014,02,14,11,46,1.60
2014,02,14,11,47,1.60
2014,02,14,11,48,1.60
2014,02,14,11,49,1.60
2014,02,14,11,50,1.60
2014,02,14,11,51,1.60
2014,02,14,11,52,3.20
2014,02,14,11,53,3.20
2014,02,14,11,54,3.20
2014,02,14,11,55,1.60
2014,02,14,11,56,1.60
2014,02,14,11,57,3.20
2014,02,14,11,58,3.20
2014,02,14,11,59,3.20
2014,02,14,12,00,1.60
2014,02,14,12,01,1.60
2014,02,14,12,02,1.60
2014,02,14,12,03,1.60
2014,02,14,12,04,1.60
2014,02,14,12,05,1.60
2014,02,14,12,06,3.20
2014,02,14,12,07,3.20
2014,02,14,12,08,3.20
2014,02,14,12,09,3.20
2014,02,14,12,10,1.60
2014,02,14,12,11,6.40
2014,02,14,12,12,4.80
2014,02,14,12,13,4.80
2014,02,14,12,14,6.40
2014,02,14,12,15,3.20
2014,02,14,12,16,1.60
2014,02,14,12,17,3.20
2014,02,14,12,18,1.60
2014,02,14,12,19,3.20
2014,02,14,12,20,4.80
2014,02,14,12,21,6.40
2014,02,14,12,22,6.40
2014,02,14,12,23,6.40
2014,02,14,12,24,4.80
2014,02,14,12,25,4.80
2014,02,14,12,26,3.20
2014,02,14,12,27,4.80
2014,02,14,12,28,4.80
2014,02,14,12,29,3.20
2014,02,14,12,30,6.40
2014,02,14,12,31,4.80
2014,02,14,12,32,4.80
2014,02,14,12,33,4.80
2014,02,14,12,34,6.40
2014,02,14,12,35,6.40
2014,02,14,12,36,3.20
2014,02,14,12,37,3.20
2014,02,14,12,38,4.80
2014,02,14,12,39,3.20
2014,02,14,12,40,3.20
2014,02,14,12,41,3.20
2014,02,14,12,42,3.20
2014,02,14,12,43,3.20
2014,02,14,12,44,4.80
2014,02,14,12,45,4.80
2014,02,14,12,46,4.80
2014,02,14,12,47,9.60
2014,02,14,12,48,9.60
2014,02,14,12,49,3.20
2014,02,14,12,50,3.20
2014,02,14,12,51,4.80
2014,02,14,12,52,3.20
2014,02,14,12,53,3.20
2014,02,14,12,54,3.20
2014,02,14,12,55,4.80
2014,02,14,12,56,4.80
2014,02,14,12,57,3.20
2014,02,14,12,58,3.20
2014,02,14,12,59,3.20
2014,02,14,13,00,4.80
2014,02,14,13,01,6.40
2014,02,14,13,02,4.80
2014,02,14,13,03,4.80
2014,02,14,13,04,3.20
2014,02,14,13,05,3.20
2014,02,14,13,06,3.20
2014,02,14,13,07,6.40
2014,02,14,13,08,4.80
2014,02,14,13,09,4.80
2014,02,14,13,10,6.40
2014,02,14,13,11,6.40
2014,02,14,13,12,4.80
2014,02,14,13,13,3.20
2014,02,14,13,14,4.80
2014,02,14,13,15,4.80
2014,02,14,13,16,4.80
2014,02,14,13,17,6.40
2014,02,14,13,18,4.80
2014,02,14,13,19,4.80
2014,02,14,13,20,3.20
2014,02,14,13,21,4.80
2014,02,14,13,22,4.80
2014,02,14,13,23,4.80
2014,02,14,13,24,3.20
2014,02,14,13,25,4.80
2014,02,14,13,26,4.80
2014,02,14,13,27,1.60
2014,02,14,13,28,3.20
2014,02,14,13,29,1.60
2014,02,14,13,30,6.40
2014,02,14,13,31,9.60
2014,02,14,13,32,9.60
2014,02,14,13,33,4.80
2014,02,14,13,34,9.60
2014,02,14,13,35,8.10
2014,02,14,13,36,4.80
2014,02,14,13,37,6.40
2014,02,14,13,38,4.80
2014,02,14,13,39,3.20
2014,02,14,13,40,3.20
2014,02,14,13,41,3.20
2014,02,14,13,42,3.20
2014,02,14,13,43,4.80
2014,02,14,13,44,4.80
2014,02,14,13,45,1.60
2014,02,14,13,46,3.20
2014,02,14,13,47,3.20
2014,02,14,13,48,4.80
2014,02,14,13,49,6.40
2014,02,14,13,50,4.80
2014,02,14,13,51,3.20
2014,02,14,13,52,4.80
2014,02,14,13,53,1.60
2014,02,14,13,54,3.20
2014,02,14,13,55,1.60
2014,02,14,13,56,8.10
2014,02,14,13,57,8.10
2014,02,14,13,58,4.80
2014,02,14,13,59,4.80
2014,02,14,14,00,3.20
2014,02,14,14,01,4.80
2014,02,14,14,02,4.80
2014,02,14,14,03,8.10
2014,02,14,14,04,11.30
2014,02,14,14,05,6.40
2014,02,14,14,06,3.20
2014,02,14,14,07,4.80
2014,02,14,14,08,6.40
2014,02,14,14,09,4.80
2014,02,14,14,10,3.20
2014,02,14,14,11,3.20
2014,02,14,14,12,4.80
2014,02,14,14,13,3.20
2014,02,14,14,14,3.20
2014,02,14,14,15,1.60
2014,02,14,14,16,1.60
2014,02,14,14,17,3.20
2014,02,14,14,18,4.80
2014,02,14,14,19,4.80
2014,02,14,14,20,3.20
2014,02,14,14,21,1.60
2014,02,14,14,22,1.60
2014,02,14,14,23,1.60
2014,02,14,14,24,4.80
2014,02,14,14,25,4.80
2014,02,14,14,26,4.80
2014,02,14,14,27,1.60
2014,02,14,14,28,3.20
2014,02,14,14,29,3.20
2014,02,14,14,30,1.60
2014,02,14,14,31,1.60
2014,02,14,14,32,1.60
2014,02,14,14,33,1.60
2014,02,14,14,34,3.20
2014,02,14,14,35,3.20
2014,02,14,14,36,1.60
2014,02,14,14,37,4.80
2014,02,14,14,38,4.80
2014,02,14,14,39,4.80
2014,02,14,14,40,3.20
2014,02,14,14,41,3.20
2014,02,14,14,42,4.80
2014,02,14,14,43,3.20
2014,02,14,14,44,3.20
2014,02,14,14,45,1.60
2014,02,14,14,46,3.20
2014,02,14,14,47,4.80
2014,02,14,14,48,4.80
2014,02,14,14,49,3.20
2014,02,14,14,50,4.80
2014,02,14,14,51,6.40
2014,02,14,14,52,4.80
2014,02,14,14,53,4.80
2014,02,14,14,54,4.80
2014,02,14,14,55,4.80
2014,02,14,14,56,3.20
2014,02,14,14,57,3.20
2014,02,14,14,58,3.20
2014,02,14,14,59,3.20
2014,02,14,15,00,3.20
2014,02,14,15,01,4.80
2014,02,14,15,02,6.40
2014,02,14,15,03,6.40
2014,02,14,15,04,4.80
2014,02,14,15,05,3.20
2014,02,14,15,06,3.20
2014,02,14,15,07,3.20
2014,02,14,15,08,1.60
2014,02,14,15,09,3.20
2014,02,14,15,10,4.80
2014,02,14,15,11,3.20
2014,02,14,15,12,3.20
2014,02,14,15,13,3.20
2014,02,14,15,14,3.20
2014,02,14,15,15,4.80
2014,02,14,15,16,4.80
2014,02,14,15,17,8.10
2014,02,14,15,18,6.40
2014,02,14,15,19,4.80
2014,02,14,15,20,3.20
2014,02,14,15,21,3.20
2014,02,14,15,22,1.60
2014,02,14,15,23,4.80
2014,02,14,15,24,6.40
2014,02,14,15,25,4.80
2014,02,14,15,26,6.40
2014,02,14,15,27,8.10
2014,02,14,15,28,4.80
2014,02,14,15,29,3.20
2014,02,14,15,30,1.60
2014,02,14,15,31,3.20
2014,02,14,15,32,3.20
2014,02,14,15,33,4.80
2014,02,14,15,34,3.20
2014,02,14,15,35,3.20
2014,02,14,15,36,3.20
2014,02,14,15,37,1.60
2014,02,14,15,38,3.20
2014,02,14,15,39,3.20
2014,02,14,15,40,4.80
2014,02,14,15,41,6.40
2014,02,14,15,42,6.40
2014,02,14,15,43,4.80
2014,02,14,15,44,4.80
2014,02,14,15,45,3.20
2014,02,14,15,46,3.20
2014,02,14,15,47,3.20
2014,02,14,15,48,1.60
2014,02,14,15,49,1.60
2014,02,14,15,50,3.20
2014,02,14,15,51,8.10
2014,02,14,15,52,4.80
2014,02,14,15,53,3.20
2014,02,14,15,54,9.60
2014,02,14,15,55,4.80
2014,02,14,15,56,3.20
2014,02,14,15,57,4.80
2014,02,14,15,58,6.40
2014,02,14,15,59,8.10
2014,02,14,16,00,9.60
2014,02,14,16,01,3.20
2014,02,14,16,02,1.60
2014,02,14,16,03,1.60
2014,02,14,16,04,3.20
2014,02,14,16,05,8.10
2014,02,14,16,06,3.20
2014,02,14,16,07,4.80
2014,02,14,16,08,3.20
2014,02,14,16,09,3.20
2014,02,14,16,10,3.20
2014,02,14,16,11,1.60
2014,02,14,16,12,1.60
2014,02,14,16,13,3.20
2014,02,14,16,14,3.20
2014,02,14,16,15,4.80
2014,02,14,16,16,4.80
2014,02,14,16,17,1.60
2014,02,14,16,18,1.60
2014,02,14,16,19,4.80
2014,02,14,16,20,3.20
2014,02,14,16,21,3.20
2014,02,14,16,22,4.80
2014,02,14,16,23,8.10
2014,02,14,16,24,4.80
2014,02,14,16,25,8.10
2014,02,14,16,26,4.80
2014,02,14,16,27,6.40
2014,02,14,16,28,3.20
2014,02,14,16,29,3.20
2014,02,14,16,30,1.60
2014,02,14,16,31,3.20
2014,02,14,16,32,1.60
2014,02,14,16,33,6.40
2014,02,14,16,34,4.80
2014,02,14,16,35,6.40
2014,02,14,16,36,4.80
2014,02,14,16,37,4.80
2014,02,14,16,38,6.40
2014,02,14,16,39,3.20
2014,02,14,16,40,8.10
2014,02,14,16,41,6.40
2014,02,14,16,42,4.80
2014,02,14,16,43,12.90
2014,02,14,16,44,12.90
2014,02,14,16,45,6.40
2014,02,14,16,46,4.80
2014,02,14,16,47,4.80
2014,02,14,16,48,3.20
2014,02,14,16,49,3.20
2014,02,14,16,50,3.20
2014,02,14,16,51,1.60
2014,02,14,16,52,3.20
2014,02,14,16,53,3.20
2014,02,14,16,54,3.20
2014,02,14,16,55,3.20
2014,02,14,16,56,3.20
2014,02,14,16,57,3.20
2014,02,14,16,58,1.60
2014,02,14,16,59,1.60
2014,02,14,17,00,3.20
2014,02,14,17,01,3.20
2014,02,14,17,02,3.20
2014,02,14,17,03,1.60
2014,02,14,17,04,1.60
2014,02,14,17,05,1.60
2014,02,14,17,06,1.60
2014,02,14,17,07,3.20
2014,02,14,17,08,4.80
2014,02,14,17,09,3.20
2014,02,14,17,10,3.20
2014,02,14,17,11,3.20
2014,02,14,17,12,1.60
2014,02,14,17,13,1.60
2014,02,14,17,14,1.60
2014,02,14,17,17,1.60
2014,02,14,17,18,1.60
2014,02,14,17,19,3.20
2014,02,14,17,20,3.20
2014,02,14,17,21,3.20
2014,02,14,17,22,3.20
2014,02,14,17,23,4.80
2014,02,14,17,24,3.20
2014,02,14,17,25,1.60
2014,02,14,17,26,1.60
2014,02,14,17,27,3.20
2014,02,14,17,28,1.60
2014,02,14,17,29,1.60
2014,02,14,17,30,1.60
2014,02,14,17,31,1.60
2014,02,14,17,33,1.60
2014,02,14,17,35,1.60
2014,02,14,17,36,1.60
2014,02,14,17,37,1.60
2014,02,14,17,38,1.60
2014,02,14,17,39,1.60
2014,02,14,17,40,1.60
2014,02,14,17,41,1.60
2014,02,14,17,42,1.60
2014,02,14,17,43,1.60
2014,02,14,17,44,1.60
2014,02,14,17,46,1.60
2014,02,14,17,47,1.60
2014,02,14,17,48,1.60
2014,02,14,17,49,1.60
2014,02,14,17,50,1.60
2014,02,14,17,57,1.60
2014,02,14,17,58,1.60
2014,02,14,17,59,1.60
2014,02,14,18,00,1.60
2014,02,14,18,01,1.60
2014,02,14,18,02,3.20
2014,02,14,18,03,3.20
2014,02,14,18,04,3.20
2014,02,14,18,05,3.20
2014,02,14,18,06,3.20